Little Falls, MN

5:33 PM CST on February 05, 2016 (GMT -0600)
Little Falls-Morrison County

Weather History for KLXL - January, 2013

Change the Weather History Date:

Monday, January 7, 2013

  Actual Average Record
Temperature  
Mean Temperature 25 °F -  
Max Temperature 35 °F 15 °F 50 °F (2003)
Min Temperature 14 °F -5 °F -32 °F (1973)
Degree Days  
Heating Degree Days 40    
Moisture  
Dew Point 19 °F    
Average Humidity 78    
Maximum Humidity 93    
Minimum Humidity 60    
Precipitation  
Precipitation 0.00 in - - ()
Sea Level Pressure  
Sea Level Pressure 29.85 in    
Wind  
Wind Speed 5 mph (SSW)    
Max Wind Speed 10 mph    
Max Gust Speed -    
Visibility 10 miles    
Events      
Averages and records for this station are not official NWS values.
T = Trace of Precipitation, MM = Missing Value Source: NWS Daily Summary

Daily Weather History Graph

Daily Weather History Graph

Search for Another Location

Airport or City:

Trip Planner

Search our weather history database for the weather conditions in past years. The results will help you decide how hot, cold, wet, or windy it might be!

Date:

Astronomy

Jan. 07, 2013 Rise Set
Actual Time 7:58 AM CST 4:49 PM CST
Civil Twilight 7:24 AM CST 5:23 PM CST
Nautical Twilight 6:46 AM CST 6:01 PM CST
Astronomical Twilight 6:10 AM CST 6:37 PM CST
Moon 3:19 AM CST (1/7) 1:03 PM CST (1/7)
Length of Visible Light 9h 59m
Length of Day
8h 51m
Waning Crescent, 22% of the Moon is Illuminated
Jan 7
Waning Crescent
Jan 11
New
Jan 18
First Quarter
Jan 26
Full
Feb 3
Last Quarter

Hourly Weather History & Observations

Time (CST) Temp. Windchill Dew Point Humidity Pressure Visibility Wind Dir Wind Speed Gust Speed Precip Events Conditions
12:13 AM 15.8 °F 4.2 °F 12.2 °F 86% 29.87 in 10.0 mi SSE 9.2 mph - N/A   Clear
12:33 AM 15.8 °F 7.2 °F 12.2 °F 86% 29.87 in 10.0 mi SSE 5.8 mph - N/A   Clear
12:53 AM 15.8 °F 5.1 °F 12.2 °F 86% 29.86 in 10.0 mi SSE 8.1 mph - N/A   Clear
1:13 AM 15.8 °F 5.1 °F 12.2 °F 86% 29.84 in 10.0 mi SSE 8.1 mph - N/A   Clear
1:33 AM 17.6 °F 7.3 °F 12.2 °F 79% 29.83 in 10.0 mi SSE 8.1 mph - N/A   Clear
1:54 AM 17.6 °F 7.3 °F 12.2 °F 79% 29.83 in 10.0 mi SSE 8.1 mph - N/A   Clear
2:33 AM 17.6 °F 7.3 °F 12.2 °F 79% 29.81 in 10.0 mi SSE 8.1 mph - N/A   Clear
2:53 AM 17.6 °F 7.3 °F 14.0 °F 86% 29.80 in 10.0 mi SSE 8.1 mph - N/A   Clear
3:13 AM 19.4 °F 10.4 °F 14.0 °F 80% 29.80 in 10.0 mi SSE 6.9 mph - N/A   Clear
3:33 AM 17.6 °F - 14.0 °F 86% 29.80 in 10.0 mi Calm Calm - N/A   Clear
3:53 AM 17.6 °F 10.7 °F 12.2 °F 79% 29.80 in 10.0 mi SSE 4.6 mph - N/A   Clear
4:13 AM 19.4 °F 11.5 °F 14.0 °F 80% 29.80 in 10.0 mi South 5.8 mph - N/A   Clear
4:33 AM 21.2 °F 13.6 °F 15.8 °F 80% 29.79 in 10.0 mi South 5.8 mph - N/A   Clear
4:53 AM 21.2 °F 13.6 °F 17.6 °F 86% 29.79 in 10.0 mi South 5.8 mph - N/A   Clear
5:13 AM 21.2 °F 13.6 °F 17.6 °F 86% 29.79 in 10.0 mi South 5.8 mph - N/A   Clear
5:33 AM 21.2 °F 14.9 °F 17.6 °F 86% 29.80 in 10.0 mi SSW 4.6 mph - N/A   Clear
5:53 AM 21.2 °F 14.9 °F 17.6 °F 86% 29.81 in 10.0 mi SSW 4.6 mph - N/A   Clear
6:13 AM 21.2 °F 13.6 °F 17.6 °F 86% 29.81 in 10.0 mi SSW 5.8 mph - N/A   Clear
6:33 AM 21.2 °F 11.7 °F 17.6 °F 86% 29.80 in 10.0 mi South 8.1 mph - N/A   Clear
6:53 AM 23.0 °F 14.7 °F 17.6 °F 80% 29.80 in 10.0 mi South 6.9 mph - N/A   Clear
7:13 AM 23.0 °F 14.7 °F 19.4 °F 86% 29.78 in 10.0 mi South 6.9 mph - N/A   Clear
7:33 AM 23.0 °F 14.7 °F 19.4 °F 86% 29.79 in 10.0 mi SSW 6.9 mph - N/A   Clear
7:53 AM 24.8 °F 17.9 °F 19.4 °F 80% 29.80 in 10.0 mi WSW 5.8 mph - N/A   Clear
8:13 AM 24.8 °F 20.5 °F 19.4 °F 80% 29.81 in 10.0 mi SW 3.5 mph - N/A   Clear
8:33 AM 24.8 °F - 19.4 °F 80% 29.81 in 10.0 mi Calm Calm - N/A   Clear
8:53 AM 24.8 °F 20.5 °F 19.4 °F 80% 29.81 in 10.0 mi South 3.5 mph - N/A   Clear
9:13 AM 23.0 °F - 19.4 °F 86% 29.82 in 10.0 mi Calm Calm - N/A   Clear
9:33 AM 23.0 °F 18.4 °F 19.4 °F 86% 29.83 in 10.0 mi SSW 3.5 mph - N/A   Clear
9:53 AM 24.8 °F - 19.4 °F 80% 29.84 in 10.0 mi Calm Calm - N/A   Clear
10:13 AM 28.4 °F - 21.2 °F 74% 29.84 in 10.0 mi Calm Calm - N/A   Clear
10:33 AM 30.2 °F 26.7 °F 21.2 °F 69% 29.84 in 10.0 mi WSW 3.5 mph - N/A   Clear
10:53 AM 32.0 °F 24.8 °F 21.2 °F 64% 29.84 in 10.0 mi WSW 8.1 mph - N/A   Clear
11:34 AM 32.0 °F 23.6 °F 23.0 °F 69% 29.83 in 10.0 mi West 10.4 mph - N/A   Clear
11:52 AM 33.8 °F 26.4 °F 21.2 °F 60% 29.82 in 10.0 mi West 9.2 mph - N/A   Clear
12:34 PM 35.6 °F 29.2 °F 23.0 °F 60% 29.82 in - WSW 8.1 mph - N/A   Unknown
1:14 PM 35.6 °F 29.9 °F 23.0 °F 60% 29.82 in 10.0 mi WSW 6.9 mph - N/A   Unknown
1:53 PM 35.6 °F 28.6 °F 23.0 °F 60% 29.82 in 10.0 mi WSW 9.2 mph - N/A   Clear
2:14 PM 35.6 °F 31.7 °F 24.8 °F 65% 29.82 in 10.0 mi SW 4.6 mph - N/A   Clear
2:33 PM 35.6 °F 31.7 °F 23.0 °F 60% 29.83 in 10.0 mi WSW 4.6 mph - N/A   Clear
2:54 PM 35.6 °F 31.7 °F 24.8 °F 65% 29.84 in 10.0 mi SW 4.6 mph - N/A   Clear
3:14 PM 35.6 °F 31.7 °F 24.8 °F 65% 29.84 in 10.0 mi WSW 4.6 mph - N/A   Clear
3:33 PM 35.6 °F 30.7 °F 23.0 °F 60% 29.85 in 10.0 mi WSW 5.8 mph - N/A   Clear
3:54 PM 35.6 °F 30.7 °F 23.0 °F 60% 29.86 in 10.0 mi WSW 5.8 mph - N/A   Clear
4:14 PM 33.8 °F 29.6 °F 23.0 °F 65% 29.86 in 10.0 mi West 4.6 mph - N/A   Clear
4:33 PM 33.8 °F 28.6 °F 23.0 °F 65% 29.87 in 10.0 mi West 5.8 mph - N/A   Clear
5:14 PM 32.0 °F 25.6 °F 23.0 °F 69% 29.88 in 10.0 mi West 6.9 mph - N/A   Clear
5:33 PM 32.0 °F 27.5 °F 23.0 °F 69% 29.88 in 10.0 mi WSW 4.6 mph - N/A   Clear
5:54 PM 32.0 °F 27.5 °F 23.0 °F 69% 29.89 in 10.0 mi West 4.6 mph - N/A   Clear
6:14 PM 30.2 °F 26.7 °F 21.2 °F 69% 29.89 in 10.0 mi WSW 3.5 mph - N/A   Clear
6:33 PM 28.4 °F - 21.2 °F 74% 29.89 in 10.0 mi Calm Calm - N/A   Clear
6:54 PM 24.8 °F 20.5 °F 17.6 °F 74% 29.89 in 10.0 mi South 3.5 mph - N/A   Clear
7:14 PM 26.6 °F - 19.4 °F 74% 29.89 in 10.0 mi Calm Calm - N/A   Clear
7:33 PM 23.0 °F - 17.6 °F 80% 29.89 in 10.0 mi Calm Calm - N/A   Clear
7:53 PM 24.8 °F - 19.4 °F 80% 29.89 in 10.0 mi Calm Calm - N/A   Clear
8:13 PM 23.0 °F - 19.4 °F 86% 29.89 in 10.0 mi Calm Calm - N/A   Clear
8:34 PM 23.0 °F - 19.4 °F 86% 29.90 in 10.0 mi Calm Calm - N/A   Clear
8:53 PM 19.4 °F - 17.6 °F 93% 29.90 in 10.0 mi Calm Calm - N/A   Clear
9:13 PM 19.4 °F - 15.8 °F 86% 29.91 in 10.0 mi Calm Calm - N/A   Clear
9:34 PM 19.4 °F - 17.6 °F 93% 29.91 in 10.0 mi Calm Calm - N/A   Clear
9:53 PM 19.4 °F - 17.6 °F 93% 29.92 in 10.0 mi Calm Calm - N/A   Clear
10:13 PM 19.4 °F - 17.6 °F 93% 29.92 in 7.0 mi Calm Calm - N/A   Clear
10:34 PM 19.4 °F - 17.6 °F 93% 29.92 in 10.0 mi Calm Calm - N/A   Clear
10:53 PM 19.4 °F - 17.6 °F 93% 29.93 in 10.0 mi Calm Calm - N/A   Clear
11:13 PM 17.6 °F - 14.0 °F 86% 29.93 in 1.2 mi Calm Calm - N/A   Mist
11:34 PM 19.4 °F - 15.8 °F 86% 29.93 in 10.0 mi Calm Calm - N/A   Clear
11:53 PM 14.0 °F - 12.2 °F 93% 29.93 in 7.0 mi Calm Calm - N/A   Clear